Time,TemperatureF,DewpointF,PressureIn,WindDirection,WindDirectionDegrees,WindSpeedMPH,WindSpeedGustMPH,Humidity,HourlyPrecipIn,Conditions,Clouds,dailyrainin,SoftwareType,DateUTC
2013-04-14 00:03:00,37.6,30.0,29.78,NNE,31,0.0,0.0,76,0.00,,,0.00,TxWx,2013-04-14 05:03:00,
2013-04-14 00:08:00,37.6,30.0,29.78,NNE,29,0.0,0.0,76,0.00,,,0.00,TxWx,2013-04-14 05:08:00,
2013-04-14 00:13:00,37.7,30.0,29.78,NNE,31,0.0,0.0,75,0.00,,,0.00,TxWx,2013-04-14 05:13:00,
2013-04-14 00:21:00,37.7,30.0,29.79,NE,34,0.0,0.0,75,0.00,,,0.00,TxWx,2013-04-14 05:21:00,
2013-04-14 00:26:00,37.7,30.0,29.79,NE,34,0.0,0.0,75,0.00,,,0.00,TxWx,2013-04-14 05:26:00,
2013-04-14 00:31:00,37.9,29.0,29.79,NE,34,0.0,0.0,74,0.00,,,0.00,TxWx,2013-04-14 05:31:00,
2013-04-14 00:36:00,38.0,29.0,29.79,NE,34,0.0,0.0,74,0.00,,,0.00,TxWx,2013-04-14 05:36:00,
2013-04-14 00:42:00,38.1,29.0,29.79,NNE,33,0.0,0.0,74,0.00,,,0.00,TxWx,2013-04-14 05:42:00,
2013-04-14 00:47:00,38.2,29.0,29.80,NE,34,0.0,0.0,74,0.00,,,0.00,TxWx,2013-04-14 05:47:00,
2013-04-14 00:56:00,38.4,29.0,29.80,North,354,0.0,0.0,74,0.00,,,0.00,TxWx,2013-04-14 05:56:00,
2013-04-14 01:02:00,38.7,30.0,29.79,North,6,0.0,0.0,73,0.00,,,0.00,TxWx,2013-04-14 06:02:00,
2013-04-14 01:11:00,38.9,30.0,29.80,North,358,0.0,0.0,73,0.00,,,0.00,TxWx,2013-04-14 06:11:00,
2013-04-14 01:16:00,39.0,30.0,29.81,North,351,0.0,0.0,73,0.00,,,0.00,TxWx,2013-04-14 06:16:00,
2013-04-14 01:21:00,39.0,30.0,29.81,North,351,0.0,0.0,73,0.00,,,0.00,TxWx,2013-04-14 06:21:00,
2013-04-14 01:26:00,39.0,30.0,29.80,North,351,0.0,0.0,73,0.00,,,0.00,TxWx,2013-04-14 06:26:00,
2013-04-14 01:31:00,39.0,30.0,29.80,North,352,0.0,0.0,73,0.00,,,0.00,TxWx,2013-04-14 06:31:00,
2013-04-14 01:36:00,39.2,30.0,29.80,North,358,0.0,0.0,73,0.00,,,0.00,TxWx,2013-04-14 06:36:00,
2013-04-14 01:41:00,39.2,30.0,29.79,North,358,0.0,0.0,73,0.00,,,0.00,TxWx,2013-04-14 06:41:00,
2013-04-14 01:48:00,39.3,30.0,29.80,NNE,13,0.0,0.0,72,0.00,,,0.00,TxWx,2013-04-14 06:48:00,
2013-04-14 01:53:00,39.3,30.0,29.79,North,8,0.0,0.0,72,0.00,,,0.00,TxWx,2013-04-14 06:53:00,
2013-04-14 01:59:00,39.4,30.0,29.79,North,7,0.0,0.0,72,0.00,,,0.00,TxWx,2013-04-14 06:59:00,
2013-04-14 02:05:00,39.5,30.0,29.79,North,11,0.0,0.0,71,0.00,,,0.00,TxWx,2013-04-14 07:05:00,
2013-04-14 02:10:00,39.5,29.0,29.79,North,2,0.0,0.0,71,0.00,,,0.00,TxWx,2013-04-14 07:10:00,
2013-04-14 02:16:00,39.5,29.0,29.79,North,2,0.0,0.0,70,0.00,,,0.00,TxWx,2013-04-14 07:16:00,
2013-04-14 02:21:00,39.5,29.0,29.79,NNE,12,0.0,0.0,70,0.00,,,0.00,TxWx,2013-04-14 07:21:00,
2013-04-14 02:26:00,39.4,29.0,29.79,North,2,0.0,0.0,69,0.00,,,0.00,TxWx,2013-04-14 07:26:00,
2013-04-14 02:36:00,39.3,29.0,29.79,North,1,0.0,0.0,70,0.00,,,0.00,TxWx,2013-04-14 07:36:00,
2013-04-14 02:41:00,39.2,29.0,29.78,North,352,0.0,0.0,70,0.00,,,0.00,TxWx,2013-04-14 07:41:00,
2013-04-14 02:46:00,39.0,29.0,29.79,North,4,0.0,0.0,70,0.00,,,0.00,TxWx,2013-04-14 07:46:00,
2013-04-14 02:55:00,38.8,29.0,29.79,North,5,0.0,0.0,69,0.00,,,0.00,TxWx,2013-04-14 07:55:00,
2013-04-14 03:01:00,38.8,29.0,29.79,North,7,0.0,0.0,69,0.00,,,0.00,TxWx,2013-04-14 08:01:00,
2013-04-14 03:06:00,38.8,29.0,29.79,North,10,0.0,0.0,69,0.00,,,0.00,TxWx,2013-04-14 08:06:00,
2013-04-14 03:12:00,38.7,28.0,29.79,NNE,14,0.0,0.0,68,0.00,,,0.00,TxWx,2013-04-14 08:12:00,
2013-04-14 03:17:00,38.7,28.0,29.80,North,3,0.0,0.0,68,0.00,,,0.00,TxWx,2013-04-14 08:17:00,
2013-04-14 03:27:00,38.6,28.0,29.80,North,8,0.0,0.0,68,0.00,,,0.00,TxWx,2013-04-14 08:27:00,
2013-04-14 03:32:00,38.5,28.0,29.80,North,4,0.0,0.0,68,0.00,,,0.00,TxWx,2013-04-14 08:32:00,
2013-04-14 03:42:00,38.5,27.0,29.80,NNE,15,0.0,0.0,67,0.00,,,0.00,TxWx,2013-04-14 08:42:00,
2013-04-14 03:47:00,38.5,27.0,29.80,NNE,14,0.0,0.0,68,0.00,,,0.00,TxWx,2013-04-14 08:47:00,
2013-04-14 03:57:00,38.5,28.0,29.81,North,2,0.0,0.0,66,0.00,,,0.00,TxWx,2013-04-14 08:57:00,
2013-04-14 04:06:00,38.4,26.0,29.80,NNE,12,0.0,0.0,66,0.00,,,0.00,TxWx,2013-04-14 09:06:00,
2013-04-14 04:12:00,38.5,26.0,29.80,NNE,15,0.0,0.0,66,0.00,,,0.00,TxWx,2013-04-14 09:12:00,
2013-04-14 04:17:00,38.4,26.0,29.80,NNE,13,0.0,0.0,66,0.00,,,0.00,TxWx,2013-04-14 09:17:00,
2013-04-14 04:26:00,38.3,27.0,29.80,NNE,12,0.0,0.0,66,0.00,,,0.00,TxWx,2013-04-14 09:26:00,
2013-04-14 04:31:00,38.2,27.0,29.81,North,6,0.0,0.0,66,0.00,,,0.00,TxWx,2013-04-14 09:31:00,
2013-04-14 04:36:00,38.3,27.0,29.81,NNE,13,0.0,0.0,67,0.00,,,0.00,TxWx,2013-04-14 09:36:00,
2013-04-14 04:42:00,38.3,27.0,29.82,NNE,12,0.0,0.0,67,0.00,,,0.00,TxWx,2013-04-14 09:42:00,
2013-04-14 04:47:00,38.2,27.0,29.82,North,9,0.0,0.0,67,0.00,,,0.00,TxWx,2013-04-14 09:47:00,
2013-04-14 04:55:00,38.2,27.0,29.81,NNE,14,0.0,0.0,68,0.00,,,0.00,TxWx,2013-04-14 09:55:00,
2013-04-14 05:01:00,38.2,27.0,29.82,North,2,0.0,0.0,68,0.00,,,0.00,TxWx,2013-04-14 10:01:00,
2013-04-14 05:06:00,38.1,27.0,29.81,North,10,0.0,0.0,68,0.00,,,0.00,TxWx,2013-04-14 10:06:00,
2013-04-14 05:11:00,38.2,27.0,29.81,North,3,0.0,0.0,68,0.00,,,0.00,TxWx,2013-04-14 10:11:00,
2013-04-14 05:21:00,38.1,27.0,29.82,North,10,0.0,0.0,68,0.00,,,0.00,TxWx,2013-04-14 10:21:00,
2013-04-14 05:26:00,38.0,27.0,29.81,North,359,0.0,0.0,67,0.00,,,0.00,TxWx,2013-04-14 10:26:00,
2013-04-14 05:36:00,38.0,27.0,29.80,North,3,0.0,0.0,66,0.00,,,0.00,TxWx,2013-04-14 10:36:00,
2013-04-14 05:41:00,38.0,27.0,29.80,North,6,0.0,0.0,66,0.00,,,0.00,TxWx,2013-04-14 10:41:00,
2013-04-14 05:46:00,38.0,26.0,29.80,North,10,0.0,0.0,66,0.00,,,0.00,TxWx,2013-04-14 10:46:00,
2013-04-14 05:51:00,38.0,27.0,29.80,North,3,0.0,0.0,67,0.00,,,0.00,TxWx,2013-04-14 10:51:00,
2013-04-14 05:59:00,38.0,27.0,29.81,North,11,0.0,0.0,67,0.00,,,0.00,TxWx,2013-04-14 10:59:00,
2013-04-14 06:04:00,38.0,27.0,29.81,North,11,0.0,0.0,67,0.00,,,0.00,TxWx,2013-04-14 11:04:00,
2013-04-14 06:11:00,37.9,27.0,29.80,North,3,0.0,0.0,67,0.00,,,0.00,TxWx,2013-04-14 11:11:00,
2013-04-14 06:16:00,37.9,27.0,29.80,North,1,0.0,0.0,67,0.00,,,0.00,TxWx,2013-04-14 11:16:00,
2013-04-14 06:21:00,37.9,27.0,29.80,North,354,0.0,0.0,68,0.00,,,0.00,TxWx,2013-04-14 11:21:00,
2013-04-14 06:26:00,37.9,27.0,29.80,North,6,0.0,0.0,68,0.00,,,0.00,TxWx,2013-04-14 11:26:00,
2013-04-14 06:31:00,37.8,27.0,29.79,North,356,0.0,0.0,68,0.00,,,0.00,TxWx,2013-04-14 11:31:00,
2013-04-14 06:36:00,37.8,27.0,29.79,North,352,0.0,0.0,68,0.00,,,0.00,TxWx,2013-04-14 11:36:00,
2013-04-14 06:46:00,37.8,27.0,29.79,North,350,0.0,0.0,68,0.00,,,0.00,TxWx,2013-04-14 11:46:00,
2013-04-14 06:51:00,37.9,27.0,29.78,North,354,0.0,0.0,68,0.00,,,0.00,TxWx,2013-04-14 11:51:00,
2013-04-14 06:56:00,37.9,27.0,29.78,North,359,0.0,0.0,68,0.00,,,0.00,TxWx,2013-04-14 11:56:00,
2013-04-14 07:01:00,37.9,27.0,29.78,North,359,0.0,0.0,67,0.00,,,0.00,TxWx,2013-04-14 12:01:00,
2013-04-14 07:07:00,38.0,27.0,29.79,North,355,0.0,0.0,67,0.00,,,0.00,TxWx,2013-04-14 12:07:00,
2013-04-14 07:16:00,38.2,27.0,29.79,North,8,0.0,0.0,67,0.00,,,0.00,TxWx,2013-04-14 12:16:00,
2013-04-14 07:22:00,38.2,27.0,29.79,North,7,0.0,0.0,66,0.00,,,0.00,TxWx,2013-04-14 12:22:00,
2013-04-14 07:31:00,38.3,27.0,29.79,North,6,0.0,0.0,66,0.00,,,0.00,TxWx,2013-04-14 12:31:00,
2013-04-14 07:36:00,38.3,27.0,29.79,North,0,0.0,0.0,67,0.00,,,0.00,TxWx,2013-04-14 12:36:00,
2013-04-14 07:46:00,38.5,27.0,29.79,North,1,0.0,0.0,66,0.00,,,0.00,TxWx,2013-04-14 12:46:00,
2013-04-14 07:51:00,38.6,28.0,29.79,North,1,0.0,0.0,66,0.00,,,0.00,TxWx,2013-04-14 12:51:00,
2013-04-14 07:56:00,38.7,28.0,29.78,North,355,0.0,0.0,66,0.00,,,0.00,TxWx,2013-04-14 12:56:00,
2013-04-14 08:05:00,38.9,27.0,29.78,North,8,0.0,0.0,66,0.00,,,0.00,TxWx,2013-04-14 13:05:00,
2013-04-14 08:11:00,39.0,27.0,29.78,North,1,0.0,0.0,65,0.00,,,0.00,TxWx,2013-04-14 13:11:00,
2013-04-14 08:21:00,39.0,27.0,29.78,NNE,15,0.0,0.0,65,0.00,,,0.00,TxWx,2013-04-14 13:21:00,
2013-04-14 08:26:00,39.2,27.0,29.78,NNE,13,0.0,0.0,66,0.00,,,0.00,TxWx,2013-04-14 13:26:00,
2013-04-14 08:31:00,39.1,27.0,29.78,North,3,0.0,0.0,66,0.00,,,0.00,TxWx,2013-04-14 13:31:00,
2013-04-14 08:36:00,39.2,28.0,29.79,North,6,0.0,0.0,66,0.00,,,0.00,TxWx,2013-04-14 13:36:00,
2013-04-14 08:42:00,39.2,28.0,29.79,NNE,14,0.0,0.0,66,0.00,,,0.00,TxWx,2013-04-14 13:42:00,
2013-04-14 08:51:00,39.3,28.0,29.79,North,4,0.0,0.0,67,0.00,,,0.00,TxWx,2013-04-14 13:51:00,
2013-04-14 08:56:00,39.3,28.0,29.79,North,7,0.0,0.0,67,0.00,,,0.00,TxWx,2013-04-14 13:56:00,
2013-04-14 09:01:00,39.3,28.0,29.78,North,5,0.0,0.0,67,0.00,,,0.00,TxWx,2013-04-14 14:01:00,
2013-04-14 09:07:00,39.3,28.0,29.78,NNE,16,0.0,0.0,67,0.00,,,0.00,TxWx,2013-04-14 14:07:00,
2013-04-14 09:16:00,39.5,29.0,29.79,NNE,14,0.0,0.0,68,0.00,,,0.00,TxWx,2013-04-14 14:16:00,
2013-04-14 09:21:00,39.6,29.0,29.80,NNE,17,0.0,0.0,67,0.00,,,0.00,TxWx,2013-04-14 14:21:00,
2013-04-14 09:26:00,39.7,29.0,29.79,NNE,19,0.0,0.0,67,0.00,,,0.00,TxWx,2013-04-14 14:26:00,
2013-04-14 09:32:00,39.8,29.0,29.79,NNE,14,0.0,0.0,68,0.00,,,0.00,TxWx,2013-04-14 14:32:00,
2013-04-14 09:41:00,39.9,29.0,29.79,North,5,0.0,0.0,68,0.00,,,0.00,TxWx,2013-04-14 14:41:00,
2013-04-14 09:51:00,40.2,29.0,29.79,NNE,16,0.0,0.0,68,0.00,,,0.00,TxWx,2013-04-14 14:51:00,
2013-04-14 09:56:00,40.6,30.0,29.78,North,358,0.0,0.0,68,0.00,,,0.00,TxWx,2013-04-14 14:56:00,
2013-04-14 10:01:00,41.1,30.0,29.78,North,359,0.0,0.0,68,0.00,,,0.00,TxWx,2013-04-14 15:01:00,
2013-04-14 10:06:00,41.5,32.0,29.78,NNE,14,0.0,0.0,68,0.00,,,0.00,TxWx,2013-04-14 15:06:00,
2013-04-14 10:11:00,41.7,31.0,29.78,North,360,0.0,0.0,67,0.00,,,0.00,TxWx,2013-04-14 15:11:00,
2013-04-14 10:21:00,41.8,32.0,29.77,North,2,0.0,0.0,68,0.00,,,0.00,TxWx,2013-04-14 15:21:00,
2013-04-14 10:26:00,41.9,31.0,29.77,North,358,0.0,0.0,67,0.00,,,0.00,TxWx,2013-04-14 15:26:00,
2013-04-14 10:32:00,42.1,31.0,29.77,North,6,0.0,0.0,67,0.00,,,0.00,TxWx,2013-04-14 15:32:00,
2013-04-14 10:41:00,42.6,33.0,29.76,North,5,0.0,0.0,68,0.00,,,0.00,TxWx,2013-04-14 15:41:00,
2013-04-14 10:46:00,42.9,33.0,29.75,North,5,0.0,0.0,69,0.00,,,0.00,TxWx,2013-04-14 15:46:00,
2013-04-14 10:55:00,44.1,34.0,29.75,North,360,0.0,0.0,67,0.00,,,0.00,TxWx,2013-04-14 15:55:00,
2013-04-14 11:00:00,44.5,34.0,29.75,NNE,23,0.0,0.0,66,0.00,,,0.00,TxWx,2013-04-14 16:00:00,
2013-04-14 11:06:00,45.1,34.0,29.74,North,4,0.0,0.0,66,0.00,,,0.00,TxWx,2013-04-14 16:06:00,
2013-04-14 11:16:00,45.9,34.0,29.74,North,6,0.0,0.0,64,0.00,,,0.00,TxWx,2013-04-14 16:16:00,
2013-04-14 11:21:00,47.0,35.0,29.73,North,7,0.0,0.0,64,0.00,,,0.00,TxWx,2013-04-14 16:21:00,
2013-04-14 11:26:00,46.6,35.0,29.73,North,0,0.0,0.0,63,0.00,,,0.00,TxWx,2013-04-14 16:26:00,
2013-04-14 11:31:00,47.3,35.0,29.73,North,6,0.0,0.0,64,0.00,,,0.00,TxWx,2013-04-14 16:31:00,
2013-04-14 11:36:00,46.5,35.0,29.73,North,9,0.0,0.0,63,0.00,,,0.00,TxWx,2013-04-14 16:36:00,
2013-04-14 11:41:00,47.6,36.0,29.73,North,7,0.0,0.0,64,0.00,,,0.00,TxWx,2013-04-14 16:41:00,
2013-04-14 11:47:00,48.3,36.0,29.73,North,6,0.0,0.0,63,0.00,,,0.00,TxWx,2013-04-14 16:47:00,
2013-04-14 11:55:00,48.5,37.0,29.72,North,10,0.0,0.0,62,0.00,,,0.00,TxWx,2013-04-14 16:55:00,
2013-04-14 12:01:00,49.2,36.0,29.71,North,5,0.0,0.0,62,0.00,,,0.00,TxWx,2013-04-14 17:01:00,
2013-04-14 12:07:00,49.3,36.0,29.70,North,7,0.0,0.0,62,0.00,,,0.00,TxWx,2013-04-14 17:07:00,
2013-04-14 12:12:00,49.1,37.0,29.69,North,9,0.0,0.0,62,0.00,,,0.00,TxWx,2013-04-14 17:12:00,
2013-04-14 12:17:00,49.6,37.0,29.69,North,4,0.0,0.0,61,0.00,,,0.00,TxWx,2013-04-14 17:17:00,
2013-04-14 12:26:00,50.4,37.0,29.69,North,11,0.0,0.0,61,0.00,,,0.00,TxWx,2013-04-14 17:26:00,
2013-04-14 12:31:00,50.6,38.0,29.68,North,8,0.0,0.0,60,0.00,,,0.00,TxWx,2013-04-14 17:31:00,
2013-04-14 12:36:00,51.0,38.0,29.68,North,6,0.0,0.0,60,0.00,,,0.00,TxWx,2013-04-14 17:36:00,
2013-04-14 12:46:00,51.3,37.0,29.68,NNE,19,0.0,0.0,59,0.00,,,0.00,TxWx,2013-04-14 17:46:00,
2013-04-14 12:55:00,52.4,38.0,29.67,North,6,0.0,0.0,58,0.00,,,0.00,TxWx,2013-04-14 17:55:00,
2013-04-14 13:01:00,52.9,38.0,29.67,North,9,0.0,0.0,58,0.00,,,0.00,TxWx,2013-04-14 18:01:00,
2013-04-14 13:06:00,53.3,39.0,29.67,North,5,0.0,0.0,58,0.00,,,0.00,TxWx,2013-04-14 18:06:00,
2013-04-14 13:12:00,54.1,40.0,29.66,North,9,0.0,0.0,58,0.00,,,0.00,TxWx,2013-04-14 18:12:00,
2013-04-14 13:21:00,55.0,40.0,29.66,NNE,13,0.0,0.0,57,0.00,,,0.00,TxWx,2013-04-14 18:21:00,
2013-04-14 13:26:00,55.9,40.0,29.66,North,359,0.0,0.0,56,0.00,,,0.00,TxWx,2013-04-14 18:26:00,
2013-04-14 13:32:00,56.0,40.0,29.66,North,4,0.0,0.0,55,0.00,,,0.00,TxWx,2013-04-14 18:32:00,
2013-04-14 13:41:00,56.9,41.0,29.65,North,4,0.0,0.0,55,0.00,,,0.00,TxWx,2013-04-14 18:41:00,
2013-04-14 13:46:00,57.3,40.0,29.65,North,360,0.0,0.0,54,0.00,,,0.00,TxWx,2013-04-14 18:46:00,
2013-04-14 13:51:00,57.2,40.0,29.64,NNE,13,0.0,0.0,52,0.00,,,0.00,TxWx,2013-04-14 18:51:00,
2013-04-14 13:56:00,58.0,41.0,29.64,North,352,0.0,0.0,53,0.00,,,0.00,TxWx,2013-04-14 18:56:00,
2013-04-14 14:01:00,58.1,40.0,29.64,North,357,0.0,0.0,52,0.00,,,0.00,TxWx,2013-04-14 19:01:00,
2013-04-14 14:06:00,58.2,40.0,29.64,North,8,0.0,0.0,51,0.00,,,0.00,TxWx,2013-04-14 19:06:00,
2013-04-14 14:11:00,58.9,41.0,29.63,NNE,19,0.0,0.0,51,0.00,,,0.00,TxWx,2013-04-14 19:11:00,
2013-04-14 14:16:00,58.4,39.0,29.63,NNE,12,0.0,0.0,50,0.00,,,0.00,TxWx,2013-04-14 19:16:00,
2013-04-14 14:21:00,58.8,41.0,29.63,North,11,0.0,0.0,51,0.00,,,0.00,TxWx,2013-04-14 19:21:00,
2013-04-14 14:27:00,58.5,41.0,29.62,North,11,0.0,0.0,51,0.00,,,0.00,TxWx,2013-04-14 19:27:00,
2013-04-14 14:33:00,59.4,41.0,29.62,North,10,0.0,0.0,51,0.00,,,0.00,TxWx,2013-04-14 19:33:00,
2013-04-14 14:38:00,59.3,41.0,29.62,NNE,17,0.0,0.0,51,0.00,,,0.00,TxWx,2013-04-14 19:38:00,
2013-04-14 14:46:00,60.6,42.0,29.62,NNE,14,0.0,0.0,51,0.00,,,0.00,TxWx,2013-04-14 19:46:00,
2013-04-14 14:55:00,60.4,42.0,29.61,NNE,14,0.0,0.0,51,0.00,,,0.00,TxWx,2013-04-14 19:55:00,
2013-04-14 15:01:00,60.3,42.0,29.61,North,8,0.0,0.0,51,0.00,,,0.00,TxWx,2013-04-14 20:01:00,
2013-04-14 15:07:00,60.5,43.0,29.61,North,10,0.0,0.0,51,0.00,,,0.00,TxWx,2013-04-14 20:07:00,
2013-04-14 15:12:00,60.6,43.0,29.61,North,10,0.0,0.0,51,0.00,,,0.00,TxWx,2013-04-14 20:12:00,
2013-04-14 15:17:00,60.6,42.0,29.60,NNE,20,0.0,0.0,50,0.00,,,0.00,TxWx,2013-04-14 20:17:00,
2013-04-14 15:23:00,60.4,42.0,29.60,North,7,0.0,0.0,51,0.00,,,0.00,TxWx,2013-04-14 20:23:00,
2013-04-14 15:28:00,60.8,42.0,29.59,NNE,22,0.0,0.0,51,0.00,,,0.00,TxWx,2013-04-14 20:28:00,
2013-04-14 15:33:00,61.2,42.0,29.59,NNE,13,0.0,0.0,51,0.00,,,0.00,TxWx,2013-04-14 20:33:00,
2013-04-14 15:41:00,61.0,42.0,29.58,NNE,18,0.0,0.0,51,0.00,,,0.00,TxWx,2013-04-14 20:41:00,
2013-04-14 15:46:00,61.3,43.0,29.58,NNE,20,0.0,0.0,51,0.00,,,0.00,TxWx,2013-04-14 20:46:00,
2013-04-14 15:51:00,61.6,44.0,29.58,NNE,27,0.0,0.0,51,0.00,,,0.00,TxWx,2013-04-14 20:51:00,
2013-04-14 16:01:00,62.4,43.0,29.58,NNE,16,0.0,0.0,51,0.00,,,0.00,TxWx,2013-04-14 21:01:00,
2013-04-14 16:07:00,62.7,44.0,29.58,NNE,19,0.0,0.0,51,0.00,,,0.00,TxWx,2013-04-14 21:07:00,
2013-04-14 16:16:00,62.4,43.0,29.58,NNE,25,0.0,0.0,50,0.00,,,0.00,TxWx,2013-04-14 21:16:00,
2013-04-14 16:21:00,62.8,44.0,29.58,NNE,24,0.0,0.0,50,0.00,,,0.00,TxWx,2013-04-14 21:21:00,
2013-04-14 16:26:00,63.2,44.0,29.58,North,7,0.0,0.0,50,0.00,,,0.00,TxWx,2013-04-14 21:26:00,
2013-04-14 16:31:00,63.1,44.0,29.58,NNE,25,0.0,0.0,51,0.00,,,0.00,TxWx,2013-04-14 21:31:00,
2013-04-14 16:36:00,62.9,43.0,29.58,NNE,25,0.0,0.0,49,0.00,,,0.00,TxWx,2013-04-14 21:36:00,
2013-04-14 16:42:00,63.2,44.0,29.57,NNE,22,0.0,0.0,50,0.00,,,0.00,TxWx,2013-04-14 21:42:00,
2013-04-14 16:51:00,63.1,44.0,29.57,North,5,0.0,0.0,51,0.00,,,0.00,TxWx,2013-04-14 21:51:00,
2013-04-14 16:56:00,63.2,45.0,29.57,North,356,0.0,0.0,51,0.00,,,0.00,TxWx,2013-04-14 21:56:00,
2013-04-14 17:02:00,63.1,45.0,29.57,North,2,0.0,0.0,52,0.00,,,0.00,TxWx,2013-04-14 22:02:00,
2013-04-14 17:11:00,63.3,45.0,29.56,NNE,16,0.0,0.0,52,0.00,,,0.00,TxWx,2013-04-14 22:11:00,
2013-04-14 17:21:00,63.1,45.0,29.56,NNE,26,0.0,0.0,53,0.00,,,0.00,TxWx,2013-04-14 22:21:00,
2013-04-14 17:26:00,63.3,46.0,29.56,NNE,18,0.0,0.0,53,0.00,,,0.00,TxWx,2013-04-14 22:26:00,
2013-04-14 17:31:00,63.2,46.0,29.56,NNE,24,0.0,0.0,53,0.00,,,0.00,TxWx,2013-04-14 22:31:00,
2013-04-14 17:36:00,63.1,46.0,29.56,NNE,13,0.0,0.0,54,0.00,,,0.00,TxWx,2013-04-14 22:36:00,
2013-04-14 17:46:00,62.8,46.0,29.56,NNE,15,0.0,0.0,53,0.00,,,0.00,TxWx,2013-04-14 22:46:00,
2013-04-14 17:51:00,62.9,46.0,29.55,NNE,25,0.0,0.0,54,0.00,,,0.00,TxWx,2013-04-14 22:51:00,
2013-04-14 17:56:00,62.7,46.0,29.55,NNE,14,0.0,0.0,54,0.00,,,0.00,TxWx,2013-04-14 22:56:00,
2013-04-14 18:01:00,62.7,46.0,29.55,North,11,0.0,0.0,54,0.00,,,0.00,TxWx,2013-04-14 23:01:00,
2013-04-14 18:10:00,62.6,46.0,29.55,NNE,15,0.0,0.0,55,0.00,,,0.00,TxWx,2013-04-14 23:10:00,
2013-04-14 18:16:00,62.5,47.0,29.55,NNE,17,0.0,0.0,55,0.00,,,0.00,TxWx,2013-04-14 23:16:00,
2013-04-14 18:22:00,62.4,46.0,29.55,NNE,13,0.0,0.0,56,0.00,,,0.00,TxWx,2013-04-14 23:22:00,
2013-04-14 18:27:00,62.3,46.0,29.55,North,1,0.0,0.0,56,0.00,,,0.00,TxWx,2013-04-14 23:27:00,
2013-04-14 18:32:00,61.8,46.0,29.55,North,355,0.0,0.0,57,0.00,,,0.00,TxWx,2013-04-14 23:32:00,
2013-04-14 18:37:00,61.5,47.0,29.55,North,2,0.0,0.0,58,0.00,,,0.00,TxWx,2013-04-14 23:37:00,
2013-04-14 18:46:00,61.0,46.0,29.55,North,5,0.0,0.0,59,0.00,,,0.00,TxWx,2013-04-14 23:46:00,
2013-04-14 18:55:00,60.6,47.0,29.55,North,0,0.0,0.0,60,0.00,,,0.00,TxWx,2013-04-14 23:55:00,
2013-04-14 19:01:00,60.5,46.0,29.55,North,3,0.0,0.0,60,0.00,,,0.00,TxWx,2013-04-15 00:01:00,
2013-04-14 19:06:00,60.2,46.0,29.55,North,5,0.0,0.0,60,0.00,,,0.00,TxWx,2013-04-15 00:06:00,
2013-04-14 19:16:00,60.1,46.0,29.55,NNE,17,0.0,0.0,60,0.00,,,0.00,TxWx,2013-04-15 00:16:00,
2013-04-14 19:21:00,59.9,46.0,29.55,NNE,18,0.0,0.0,60,0.00,,,0.00,TxWx,2013-04-15 00:21:00,
2013-04-14 19:27:00,59.8,46.0,29.54,NNE,19,0.0,0.0,60,0.00,,,0.00,TxWx,2013-04-15 00:27:00,
2013-04-14 19:32:00,59.7,46.0,29.55,NNE,20,0.0,0.0,61,0.00,,,0.00,TxWx,2013-04-15 00:32:00,
2013-04-14 19:38:00,59.3,46.0,29.55,NNE,18,0.0,0.0,62,0.00,,,0.00,TxWx,2013-04-15 00:38:00,
2013-04-14 19:44:00,58.9,46.0,29.54,NNE,15,0.0,0.0,63,0.00,,,0.00,TxWx,2013-04-15 00:44:00,
2013-04-14 19:49:00,58.8,46.0,29.55,NNE,13,0.0,0.0,63,0.00,,,0.00,TxWx,2013-04-15 00:49:00,
2013-04-14 19:54:00,58.7,46.0,29.54,NNE,17,0.0,0.0,63,0.00,,,0.00,TxWx,2013-04-15 00:54:00,
2013-04-14 19:59:00,58.6,46.0,29.55,NNE,12,0.0,0.0,63,0.00,,,0.00,TxWx,2013-04-15 00:59:00,
2013-04-14 20:06:00,58.5,46.0,29.54,NNE,18,0.0,0.0,63,0.00,,,0.00,TxWx,2013-04-15 01:06:00,
2013-04-14 20:11:00,58.3,46.0,29.54,North,11,0.0,0.0,64,0.00,,,0.00,TxWx,2013-04-15 01:11:00,
2013-04-14 20:16:00,58.2,46.0,29.54,NNE,17,0.0,0.0,64,0.00,,,0.00,TxWx,2013-04-15 01:16:00,
2013-04-14 20:22:00,58.1,46.0,29.54,North,11,0.0,0.0,64,0.00,,,0.00,TxWx,2013-04-15 01:22:00,
2013-04-14 20:28:00,58.1,46.0,29.54,NNE,16,0.0,0.0,64,0.00,,,0.00,TxWx,2013-04-15 01:28:00,
2013-04-14 20:33:00,57.7,46.0,29.55,NNE,18,0.0,0.0,64,0.00,,,0.00,TxWx,2013-04-15 01:33:00,
2013-04-14 20:38:00,57.5,45.0,29.55,NNE,13,0.0,0.0,65,0.00,,,0.00,TxWx,2013-04-15 01:38:00,
2013-04-14 20:43:00,57.1,46.0,29.55,NNE,15,0.0,0.0,66,0.00,,,0.00,TxWx,2013-04-15 01:43:00,
2013-04-14 20:49:00,56.8,46.0,29.55,NNE,14,0.0,0.0,66,0.00,,,0.00,TxWx,2013-04-15 01:49:00,
2013-04-14 20:56:00,56.5,46.0,29.55,North,8,0.0,0.0,67,0.00,,,0.00,TxWx,2013-04-15 01:56:00,
2013-04-14 21:02:00,56.4,45.0,29.55,North,357,0.0,0.0,67,0.00,,,0.00,TxWx,2013-04-15 02:02:00,
2013-04-14 21:07:00,56.3,45.0,29.55,North,358,0.0,0.0,68,0.00,,,0.00,TxWx,2013-04-15 02:07:00,
2013-04-14 21:12:00,56.2,45.0,29.55,North,4,0.0,0.0,68,0.00,,,0.00,TxWx,2013-04-15 02:12:00,
2013-04-14 21:18:00,56.3,45.0,29.55,North,4,0.0,0.0,68,0.00,,,0.00,TxWx,2013-04-15 02:18:00,
2013-04-14 21:26:00,56.5,46.0,29.55,North,2,0.0,0.0,68,0.00,,,0.00,TxWx,2013-04-15 02:26:00,
2013-04-14 21:31:00,56.6,46.0,29.55,North,1,0.0,0.0,68,0.00,,,0.00,TxWx,2013-04-15 02:31:00,
2013-04-14 21:36:00,56.6,46.0,29.55,North,7,0.0,0.0,68,0.00,,,0.00,TxWx,2013-04-15 02:36:00,
2013-04-14 21:42:00,56.4,45.0,29.55,North,359,0.0,0.0,68,0.00,,,0.00,TxWx,2013-04-15 02:42:00,
2013-04-14 21:47:00,56.5,46.0,29.55,North,2,0.0,0.0,68,0.00,,,0.00,TxWx,2013-04-15 02:47:00,
2013-04-14 21:56:00,56.5,45.0,29.55,North,6,0.0,0.0,68,0.00,,,0.00,TxWx,2013-04-15 02:56:00,
2013-04-14 22:01:00,56.7,46.0,29.54,North,4,0.0,0.0,67,0.00,,,0.00,TxWx,2013-04-15 03:01:00,
2013-04-14 22:11:00,56.8,46.0,29.54,North,9,0.0,0.0,67,0.00,,,0.00,TxWx,2013-04-15 03:11:00,
2013-04-14 22:16:00,57.0,46.0,29.54,North,359,0.0,0.0,67,0.00,,,0.00,TxWx,2013-04-15 03:16:00,
2013-04-14 22:22:00,56.9,46.0,29.55,North,4,0.0,0.0,66,0.00,,,0.00,TxWx,2013-04-15 03:22:00,
2013-04-14 22:27:00,56.9,46.0,29.55,North,5,0.0,0.0,67,0.00,,,0.00,TxWx,2013-04-15 03:27:00,
2013-04-14 22:36:00,56.9,46.0,29.54,NNE,20,0.0,0.0,66,0.00,,,0.00,TxWx,2013-04-15 03:36:00,
2013-04-14 22:46:00,56.9,46.0,29.54,NNE,23,0.0,0.0,66,0.00,,,0.00,TxWx,2013-04-15 03:46:00,
2013-04-14 22:52:00,56.9,46.0,29.54,NNE,23,0.0,0.0,66,0.00,,,0.00,TxWx,2013-04-15 03:52:00,
2013-04-14 22:57:00,56.9,46.0,29.54,NNE,21,0.0,0.0,66,0.00,,,0.00,TxWx,2013-04-15 03:57:00,
2013-04-14 23:00:00,56.8,46.0,29.54,NNE,19,0.0,0.0,66,0.00,,,0.00,TxWx,2013-04-15 04:00:00,
2013-04-14 23:05:00,56.8,46.0,29.54,NNE,25,0.0,0.0,66,0.00,,,0.00,TxWx,2013-04-15 04:05:00,
2013-04-14 23:11:00,56.9,46.0,29.54,NNE,29,0.0,0.0,66,0.00,,,0.00,TxWx,2013-04-15 04:11:00,
2013-04-14 23:17:00,57.0,45.0,29.54,NNE,29,0.0,0.0,65,0.00,,,0.00,TxWx,2013-04-15 04:17:00,
2013-04-14 23:22:00,57.1,45.0,29.54,NNE,27,0.0,0.0,64,0.00,,,0.00,TxWx,2013-04-15 04:22:00,
2013-04-14 23:31:00,57.3,45.0,29.54,North,5,0.0,0.0,64,0.00,,,0.00,TxWx,2013-04-15 04:31:00,
2013-04-14 23:35:00,57.4,44.0,29.54,North,6,0.0,0.0,63,0.00,,,0.00,TxWx,2013-04-15 04:35:00,
2013-04-14 23:41:00,57.8,45.0,29.55,North,350,0.0,0.0,62,0.00,,,0.00,TxWx,2013-04-15 04:41:00,
2013-04-14 23:46:00,58.1,44.0,29.55,North,6,0.0,0.0,61,0.00,,,0.00,TxWx,2013-04-15 04:46:00,
2013-04-14 23:56:00,58.3,44.0,29.55,North,8,0.0,0.0,59,0.00,,,0.00,TxWx,2013-04-15 04:56:00,